Home > Weather > Vaughan > Past weeks

Flag for Canada Past Weather in Vaughan, Ontario, Canada — Yesterday and Last 2 Weeks

Now
68 °F

Passing clouds.


Feels Like: 68 °F
Forecast: 69 / 82 °F
Wind: 9 mph from North

Location: Toronto Buttonville

Current Time: Jul 29, 2016 at 3:52:41 AM

Latest Report: Jul 29, 2016 at 3:00 AM


Visibility: 15 mi

Pressure: 29.93 "Hg

Humidity: 83%

Dew Point: 63 °F

Location of VaughanLocation

Past Weather in Vaughan — Graph

°F

Vaughan Temperature Yesterday

Maximum temperature yesterday: 82 °F (at 1:00 PM)
Minimum temperature yesterday: 66 °F (at 11:00 PM)
Average temperature yesterday: 75 °F

High & Low Weather Summary for the Past Weeks

 TemperatureHumidityPressure
High93 °F (Jul 22, 3:00 PM)94% (Jul 14, 2:00 AM)30.28 "Hg (Jul 14, 2:00 AM)
Low55 °F (Jul 17, 4:00 AM)24% (Jul 22, 5:45 PM)29.71 "Hg (Jul 14, 6:00 PM)
Average74 °F62%29.96 "Hg
* Reported Jul 14 2:00 AM — Jul 29 2:00 AM, Vaughan, Weather by CustomWeather, © 2016

Note: Actual official high and low records may vary slightly from our data, if they occured in-between our weather recording intervals... More about our weather records

Advertising

Vaughan Weather History for the Previous 24 Hours

Scroll right to see more
 ConditionsComfort  
Time TempWeatherWind HumidityBarometerVisibility
2:00 AM
Fri, Jul 29
70 °FPassing clouds.5 mph83%29.92 "Hg15 mi
1:00 AM68 °FPassing clouds.3 mph88%29.92 "Hg15 mi
12:00 AM68 °FPassing clouds.2 mph88%29.92 "Hg15 mi
11:55 PM
Thu, Jul 28
68 °FPassing clouds.3 mph88%29.92 "Hg15 mi
11:00 PM66 °FSprinkles. Overcast.3 mph88%29.94 "Hg5 mi
10:00 PM77 °FPassing clouds.16 mph57%29.93 "Hg15 mi
9:00 PM79 °FBroken clouds.7 mph54%29.90 "Hg15 mi
8:00 PM79 °FPartly sunny.7 mph54%29.90 "Hg15 mi
7:00 PM81 °FMore clouds than sun.8 mph54%29.88 "Hg15 mi
6:00 PM82 °FCloudy.6 mph51%29.88 "Hg15 mi
5:00 PM82 °FBroken clouds.8 mph51%29.87 "Hg15 mi
4:00 PM82 °FBroken clouds.2 mph55%29.88 "Hg15 mi
3:00 PM82 °FPartly sunny.3 mph51%29.89 "Hg15 mi
2:00 PM82 °FPartly sunny.3 mph51%29.91 "Hg15 mi
1:00 PM82 °FPartly sunny.8 mph51%29.92 "Hg15 mi
12:00 PM81 °FPartly sunny.3 mph58%29.92 "Hg15 mi
11:00 AM79 °FBroken clouds.3 mph65%29.93 "Hg15 mi
10:00 AM75 °FPartly sunny.5 mph69%29.94 "Hg15 mi
9:00 AM73 °FBroken clouds.9 mph74%29.94 "Hg15 mi
8:00 AM72 °FBroken clouds.7 mph78%29.93 "Hg13 mi
7:00 AM70 °FPartly cloudy.6 mph83%29.93 "Hg12 mi
6:00 AM68 °FPassing clouds.2 mph88%29.92 "Hg12 mi
5:00 AM68 °FPassing clouds.5 mph88%29.91 "Hg15 mi
4:00 AM72 °FOvercast.2 mph83%29.90 "Hg15 mi
3:00 AM70 °FPassing clouds.3 mph88%29.90 "Hg15 mi
Weather by CustomWeather, © 2016

See weather overviewHow to use our weather pages